DW7857 Weather Reports


Display with metric or nautical units.
time (UTC)temp
F
wind
direction
speed
MPH
gust
MPH
rain 1hr
in
rain 24hr
in
rain mn
in
humidity
%
barometer
mb
20260505013813 52 67 1.0 2.0 0.00 0.00 0.00 91 1017.5
20260505012703 52 48 1.0 2.0 0.00 0.00 0.00 91 1017.5
20260505011803 52 67 1.0 2.0 0.00 0.00 0.00 91 1017.3
20260505010903 52 29 1.0 2.0 0.00 0.00 0.00 91 1017.6
20260505010003 52 35 2.0 2.0 0.00 0.00 0.00 91 1017.5
20260505005403 53 63 1.0 2.0 0.00 0.00 0.00 91 1017.5
20260505004503 53 22 2.0 3.0 0.00 0.00 0.00 92 1017.7
20260505003812 53 6 2.0 2.0 0.00 0.00 0.00 92 1017.7
20260505002914 53 315 2.0 2.0 0.00 0.00 0.00 92 1017.8
20260505001803 53 334 1.0 3.0 0.00 0.00 0.00 92 1017.6
20260505000903 53 6 1.0 2.0 0.00 0.00 0.00 92 1017.8
20260505000003 53 54 1.0 2.0 0.00 0.00 0.00 92 1018.1
20260504235613 53 48 1.0 2.0 0.00 0.00 0.00 92 1018.2
20260504234503 53 34 1.0 2.0 0.00 0.00 0.00 92 1018.1
20260504233603 53 66 2.0 3.0 0.00 0.00 0.00 91 1018.0
20260504232703 53 53 2.0 3.0 0.00 0.00 0.00 91 1018.1
20260504232013 53 19 1.0 2.0 0.00 0.00 0.00 91 1017.8
20260504230903 53 140 1.0 2.0 0.00 0.00 0.00 91 1018.1
20260504230004 53 91 1.0 2.0 0.00 0.00 0.00 91 1017.8
20260504225403 53 6 2.0 5.0 0.00 0.00 0.00 91 1017.5
20260504224503 53 327 3.0 5.0 0.00 0.00 0.00 91 1017.5
20260504223603 54 27 2.0 3.0 0.00 0.00 0.00 90 1017.8
20260504222703 54 57 3.0 4.0 0.00 0.00 0.00 90 1018.0
20260504221803 54 61 2.0 4.0 0.00 0.00 0.00 90 1017.9
20260504220903 54 44 2.0 3.0 0.00 0.00 0.00 90 1017.9
20260504220003 55 68 2.0 4.0 0.00 0.00 0.00 86 1018.0
20260504215403 55 50 2.0 4.0 0.00 0.00 0.00 86 1018.1
20260504214503 55 33 2.0 3.0 0.00 0.00 0.00 86 1018.3
20260504213603 55 334 2.0 2.0 0.00 0.00 0.00 86 1018.1
20260504212703 55 59 2.0 2.0 0.00 0.00 0.00 85 1018.3
20260504211803 55 60 1.0 2.0 0.00 0.00 0.00 85 1018.1
20260504210903 55 62 1.0 2.0 0.00 0.00 0.00 84 1018.4
20260504210004 55 45 1.0 2.0 0.00 0.00 0.00 84 1018.0
20260504205403 55 48 2.0 2.0 0.00 0.00 0.00 84 1018.2
20260504204503 55 45 2.0 2.0 0.00 0.00 0.00 84 1018.3
20260504203603 55 25 2.0 2.0 0.00 0.00 0.00 84 1018.4
20260504202703 56 59 2.0 2.0 0.00 0.00 0.00 83 1018.2
20260504201803 56 43 2.0 2.0 0.00 0.00 0.00 83 1018.3
20260504200903 56 45 1.0 2.0 0.00 0.00 0.00 82 1018.0
20260504200003 56 45 1.0 2.0 0.00 0.00 0.00 82 1018.0
20260504195403 56 45 1.0 2.0 0.00 0.00 0.00 82 1017.9
20260504194503 57 71 1.0 2.0 0.00 0.00 0.00 82 1017.9
20260504193812 57 76 2.0 3.0 0.00 0.00 0.00 81 1017.8
20260504192703 57 65 2.0 3.0 0.00 0.00 0.00 81 1017.7
20260504191803 57 53 2.0 3.0 0.00 0.00 0.00 81 1017.5
20260504190903 57 106 2.0 2.0 0.00 0.00 0.00 81 1017.6
20260504190003 57 56 2.0 4.0 0.00 0.00 0.00 80 1017.6
20260504185403 58 58 2.0 4.0 0.00 0.00 0.00 80 1017.7
20260504184504 58 40 3.0 4.0 0.00 0.00 0.00 80 1017.4
20260504183603 58 73 4.0 6.0 0.00 0.00 0.00 79 1017.5
20260504182703 58 52 3.0 5.0 0.00 0.00 0.00 79 1017.8
20260504181803 58 61 4.0 6.0 0.00 0.00 0.00 78 1017.2
20260504180903 58 86 5.0 6.0 0.00 0.00 0.00 78 1017.4
20260504180214 59 64 4.0 6.0 0.00 0.00 0.00 77 1017.2
20260504175403 59 61 4.0 7.0 0.00 0.00 0.00 77 1017.3
20260504174503 59 52 4.0 7.0 0.00 0.00 0.00 77 1017.4
20260504173603 59 79 4.0 7.0 0.00 0.00 0.00 77 1017.3
20260504172703 59 33 4.0 4.0 0.00 0.00 0.00 76 1017.4
20260504171803 59 65 4.0 4.0 0.00 0.00 0.00 76 1017.2
20260504170903 59 3 4.0 8.0 0.00 0.00 0.00 77 1017.2
20260504170213 59 48 4.0 4.0 0.00 0.00 0.00 78 1017.2
20260504151113 67 219 5.0 6.0 0.00 0.00 0.00 53 1017.1
20260504140903 67 205 6.0 11.0 0.00 0.00 0.00 52 1017.0
20260504100212 64 84 3.0 4.0 0.00 0.00 0.00 60 1017.6
20260504081803 61 214 2.0 2.0 0.00 0.00 0.00 67 1017.2
20260504080903 61 247 1.0 2.0 0.00 0.00 0.00 68 1017.2
20260504070213 59 171 3.0 4.0 0.00 0.00 0.00 78 1016.9
20260504050003 51 225 0.0 1.0 0.00 0.00 0.00 94 1015.6
20260504045403 51 0 0.0 0.0 0.00 0.00 0.00 94 1015.5
20260504044503 51 225 0.0 1.0 0.00 0.00 0.00 94 1015.3
20260504043603 51 225 0.0 2.0 0.00 0.00 0.00 95 1015.4
20260504042703 52 225 0.0 1.0 0.00 0.00 0.00 95 1015.5
20260504041803 52 225 0.0 2.0 0.00 0.00 0.00 95 1015.3
20260504040903 52 184 1.0 2.0 0.00 0.00 0.00 95 1015.5
20260504040003 52 167 1.0 1.0 0.00 0.00 0.00 95 1015.4
20260504035403 52 204 1.0 2.0 0.00 0.00 0.00 95 1015.5
20260504034713 52 207 1.0 2.0 0.00 0.00 0.00 95 1015.3
20260504033812 52 202 1.0 2.0 0.00 0.00 0.00 95 1015.5
20260504032703 53 197 1.0 2.0 0.00 0.00 0.00 95 1015.5
20260504031803 53 198 1.0 2.0 0.00 0.00 0.00 95 1015.6
20260504030903 53 174 1.0 2.0 0.00 0.00 0.00 95 1015.6
20260504030003 53 176 1.0 2.0 0.00 0.00 0.00 95 1015.6
20260504025403 53 180 0.0 1.0 0.00 0.00 0.00 95 1015.6
20260504024503 53 0 0.0 0.0 0.00 0.00 0.00 95 1015.5
20260504023603 53 180 1.0 2.0 0.00 0.00 0.00 95 1015.5
20260504022703 53 134 0.0 2.0 0.00 0.00 0.00 94 1015.7
20260504021803 52 159 1.0 2.0 0.00 0.00 0.00 94 1015.3
20260504020903 52 143 1.0 2.0 0.00 0.00 0.00 94 1015.2
20260504020003 52 169 1.0 2.0 0.00 0.00 0.00 94 1015.5
20260504015403 52 180 0.0 2.0 0.00 0.00 0.00 94 1015.6
20260504014503 52 93 0.0 1.0 0.00 0.00 0.00 94 1015.4